FW3795 Weather Reports


time (UTC)temp
C
wind
direction
speed
KPH
gust
KPH
rain 1hr
cm
rain 24hr
cm
rain mn
cm
humidity
%
barometer
mb
20260509111512 7 242 3.2 8.0 0.03 0.25 0.03 84 1009.0
20260509110015 7 215 4.8 12.9 0.00 0.23 0.00 83 1009.0
20260509104508 7 232 4.8 9.7 0.00 0.23 0.00 81 1008.8
20260509103008 7 231 4.8 9.7 0.00 0.23 0.00 80 1008.6
20260509101506 7 220 3.2 6.4 0.00 0.23 0.00 79 1008.4
20260509100004 6 219 3.2 8.0 0.00 0.23 0.00 79 1008.4
20260509094600 6 223 3.2 8.0 0.00 0.23 0.00 79 1008.5
20260509093100 6 218 4.8 8.0 0.00 0.23 0.00 79 1008.5
20260509091608 6 216 3.2 6.4 0.00 0.23 0.00 78 1008.6
20260509090057 6 216 1.6 4.8 0.00 0.23 0.00 78 1008.5
20260509084555 6 217 4.8 8.0 0.00 0.23 0.00 78 1008.9
20260509083054 6 217 1.6 6.4 0.00 0.23 0.00 78 1009.0
20260509081553 6 208 4.8 8.0 0.00 0.23 0.00 79 1009.2
20260509080048 6 219 3.2 6.4 0.00 0.23 0.00 79 1009.2
20260509074548 6 219 3.2 8.0 0.00 0.23 0.00 78 1009.5
20260509073047 6 219 1.6 4.8 0.00 0.23 0.00 78 1009.4
20260509071548 6 218 4.8 8.0 0.00 0.23 0.00 78 1009.4
20260509070043 6 211 3.2 8.0 0.00 0.23 0.00 78 1009.6
20260509064547 6 210 3.2 6.4 0.00 0.23 0.00 79 1009.9
20260509063038 5 210 3.2 6.4 0.00 0.23 0.00 79 1010.2
20260509061538 5 209 1.6 8.0 0.00 0.23 0.00 78 1010.3
20260509060037 6 217 6.4 12.9 0.00 0.23 0.00 76 1010.5
20260509054533 6 185 0.0 3.2 0.00 0.23 0.00 74 1010.5
20260509053032 6 185 1.6 6.4 0.00 0.23 0.00 75 1010.7
20260509051527 5 180 0.0 3.2 0.00 0.23 0.00 78 1010.9
20260509050035 5 180 0.0 4.8 0.00 0.23 0.00 80 1011.1
20260509044522 4 180 1.6 4.8 0.00 0.23 0.00 80 1011.3
20260509043021 4 180 0.0 3.2 0.00 0.23 0.00 79 1011.1
20260509041518 4 180 3.2 4.8 0.00 0.23 0.00 78 1011.1
20260509040015 4 180 0.0 0.0 0.00 0.23 0.00 76 1011.1
20260509034514 5 180 0.0 3.2 0.00 0.23 0.23 75 1011.2
20260509033015 5 180 1.6 4.8 0.00 0.23 0.23 74 1011.3
20260509031521 5 180 1.6 4.8 0.00 0.23 0.23 70 1011.1
20260509030021 6 180 0.0 0.0 0.00 0.23 0.23 67 1011.2
20260509024513 6 180 0.0 4.8 0.00 0.23 0.23 66 1011.4
20260509023021 7 180 0.0 3.2 0.00 0.23 0.23 66 1011.4
20260509021512 7 180 0.0 0.0 0.00 0.23 0.23 67 1011.6
20260509020016 7 180 0.0 0.0 0.00 0.23 0.23 64 1011.7
20260509014512 7 180 0.0 0.0 0.00 0.23 0.23 63 1011.5
20260509013013 7 180 0.0 3.2 0.00 0.23 0.23 65 1011.4
20260509011510 7 180 0.0 3.2 0.00 0.23 0.23 65 1011.1
20260509010011 7 180 0.0 6.4 0.00 0.23 0.23 64 1011.0
20260509004521 8 107 0.0 3.2 0.00 0.23 0.23 62 1010.7
20260509003009 9 107 0.0 4.8 0.00 0.23 0.23 59 1010.8
20260509001508 10 62 0.0 4.8 0.00 0.23 0.23 53 1010.7
20260509000007 10 62 0.0 3.2 0.00 0.23 0.23 53 1010.5
20260508234506 11 62 0.0 4.8 0.00 0.23 0.23 51 1010.3
20260508233007 11 62 0.0 4.8 0.00 0.23 0.23 49 1010.3
20260508231505 11 63 3.2 8.0 0.00 0.23 0.23 47 1010.3
20260508230005 11 87 3.2 14.5 0.00 0.23 0.23 46 1010.2
20260508224504 12 79 6.4 14.5 0.00 0.23 0.23 46 1010.3
20260508223004 12 93 8.0 16.1 0.00 0.23 0.23 45 1010.1
20260508221503 13 114 9.7 17.7 0.00 0.23 0.23 43 1010.1
20260508220001 13 63 6.4 12.9 0.00 0.23 0.23 40 1010.1
20260508214622 13 51 6.4 14.5 0.00 0.23 0.23 39 1010.0
20260508213058 13 296 6.4 12.9 0.00 0.23 0.23 41 1010.3
20260508211559 12 333 4.8 17.7 0.00 0.23 0.23 43 1010.4
20260508210055 12 63 6.4 16.1 0.00 0.23 0.23 40 1010.3
20260508204557 12 18 3.2 12.9 0.00 0.23 0.23 41 1010.3
20260508203053 12 331 8.0 17.7 0.00 0.23 0.23 41 1010.3
20260508201555 12 304 4.8 25.7 0.00 0.23 0.23 43 1010.5
20260508200052 13 320 14.5 22.5 0.00 0.23 0.23 42 1010.6
20260508194613 13 330 11.3 24.1 0.00 0.23 0.23 43 1011.0
20260508193045 12 312 16.1 27.4 0.00 0.23 0.23 47 1011.3
20260508191540 13 311 4.8 24.1 0.00 0.23 0.23 44 1011.3
20260508190038 12 321 9.7 22.5 0.00 0.23 0.23 46 1011.4
20260508184535 12 267 11.3 19.3 0.00 0.23 0.23 49 1011.5
20260508183032 12 301 12.9 24.1 0.00 0.23 0.23 50 1011.8
20260508181547 11 238 14.5 27.4 0.00 0.23 0.23 49 1011.7
20260508180027 11 317 11.3 27.4 0.00 0.23 0.23 58 1011.9
20260508174523 10 215 11.3 16.1 0.00 0.23 0.23 63 1012.1
20260508173033 9 198 8.0 19.3 0.00 0.23 0.23 66 1012.2
20260508171523 8 221 12.9 27.4 0.00 0.23 0.23 70 1012.3
20260508170013 7 146 12.9 20.9 0.00 0.23 0.23 70 1012.7
20260508164516 7 115 12.9 19.3 0.00 0.23 0.23 71 1012.6
20260508163018 7 69 9.7 17.7 0.00 0.23 0.23 72 1012.8
20260508161520 7 175 4.8 11.3 0.00 0.23 0.23 71 1012.9
20260508160009 7 196 3.2 11.3 0.00 0.23 0.23 70 1012.9
20260508154506 6 234 1.6 12.9 0.00 0.23 0.23 76 1013.0
20260508153003 5 243 3.2 8.0 0.00 0.23 0.23 77 1013.0
20260508151608 5 232 1.6 6.4 0.00 0.23 0.23 79 1013.0
20260508150100 5 234 3.2 8.0 0.00 0.23 0.23 79 1013.0
20260508144559 5 232 0.0 8.0 0.00 0.23 0.23 81 1013.1
20260508143059 5 229 0.0 12.9 0.03 0.23 0.23 82 1013.0
20260508141557 4 221 3.2 9.7 0.03 0.23 0.23 84 1012.8
20260508140053 3 212 3.2 8.0 0.03 0.23 0.23 85 1012.9
20260508134556 3 215 1.6 9.7 0.03 0.23 0.23 85 1013.0
20260508133102 3 194 3.2 8.0 0.03 0.20 0.20 84 1013.0
20260508131548 3 200 4.8 9.7 0.08 0.20 0.20 84 1012.8
20260508130046 3 228 8.0 17.7 0.18 0.20 0.20 83 1012.9
20260508124543 3 245 6.4 14.5 0.20 0.20 0.20 83 1012.5
20260508123053 3 242 6.4 19.3 0.18 0.18 0.18 81 1012.4
20260508121550 3 283 12.9 17.7 0.13 0.13 0.13 79 1012.4
20260508120036 4 227 11.3 19.3 0.03 0.03 0.03 79 1012.1
20260508114534 4 224 3.2 6.4 0.00 0.00 0.00 82 1011.5
20260508113033 4 224 0.0 3.2 0.00 0.00 0.00 82 1011.0